Погода в Бодмине

Великобритания     50°28′02″N   4°43′24″W
темп.,
°C
ветер,
м/с
пор.,
м/с
влажн.,
%
обл.,
%
осадки,
мм/ч
давл.,
гПа
погр.,
м
22 января, сб
сб2200:00+6ссз3679100 0.0 1040178
03:00+5сз378199 0.0 1039246
06:00+6ссз477997 0.0 1039341
09:00+6с368199 0.0 1039322
12:00+7ссз457585 0.0 1039746
15:00+7с457735 0.0 1037687
18:00+3ссв23930 0.0 103833
21:00+2св22950 0.0 103718
23 января, вс
вс2300:00+2всв11921 0.0 103710
03:00+2вюв119128 0.0 103510
06:00+1юв229466 0.0 103417
09:00+2вюв229412 0.0 103433
12:00+7юв468535 0.0 1034436
15:00+7юв358315 0.0 1032451
18:00+4вюв229210 0.0 103228
21:00+3в22936 0.0 103324
24 января, пн
пн2400:00+2в22933 0.0 103317
03:00+2всв11911 0.0 103311
06:00+2св11900 0.0 103310
09:00+2св11900 0.0 103514
12:00+7св34780 0.0 1035371
15:00+7ссв35821 0.0 1035478
18:00+3всв22910 0.0 103611
21:00+2св11890 0.0 103810
25 января, вт
вт2500:00+2всв11870 0.0 103810
03:00+2вюв11830 0.0 103810
06:00+2всв11810 0.0 103810
09:00+3вюв11790 0.0 104010
12:00+8юв11680 0.0 1040255
15:00+8ююв11720 0.0 1038296
18:00+3ссв11860 0.0 103910
21:00+3всв11870 0.0 104010
26 января, ср
ср2600:00+3вюв11870 0.0 103910
03:00+2юв01875 0.0 103810
06:00+2юв11875 0.0 103710
09:00+3вюв118716 0.0 103710
12:00+8ю23805 0.0 1036326
15:00+8ююз238362 0.0 1034571
18:00+6ююз338066 0.0 103359
21:00+6ююз3383100 0.0 103260